Change the Weather History Date:

Friday, February 8, 2013

  Actual Average Record
Temperature  
Mean Temperature 38 °F -  
Max Temperature 47 °F 48 °F 54 °F (2015)
Min Temperature 29 °F 34 °F 18 °F (2014)
Degree Days  
Heating Degree Days 27    
Moisture  
Dew Point 33 °F    
Average Humidity 83    
Maximum Humidity 93    
Minimum Humidity 62    
Precipitation  
Precipitation 0.00 in 0.12 in - ()
Sea Level Pressure  
Sea Level Pressure 30.28 in    
Wind  
Wind Speed 5 mph ()    
Max Wind Speed 10 mph    
Max Gust Speed -    
Visibility 20.0 miles    
Events      
Averages and records for this station are not official NWS values.
T = Trace of Precipitation, MM = Missing Value Source: Averaged Metar Reports

Daily Weather History Graph

Daily Weather History Graph

Search for Another Location

Airport or City:

Trip Planner

Search our weather history database for the weather conditions in past years. The results will help you decide how hot, cold, wet, or windy it might be!

Date:

Astronomy

Feb. 08, 2013 Rise Set
Actual Time 7:32 AM PST 5:24 PM PST
Civil Twilight 6:59 AM PST 5:57 PM PST
Nautical Twilight 6:22 AM PST 6:34 PM PST
Astronomical Twilight 5:45 AM PST 7:10 PM PST
Moon 6:08 AM PST (2/8) 4:01 PM PST (2/8)
Length of Visible Light 10h 57m
Length of Day
9h 51m
Waning Crescent, 3% of the Moon is Illuminated
Feb 8
Waning Crescent
Feb 9
New
Feb 17
First Quarter
Feb 25
Full
Mar 4
Last Quarter

Hourly Weather History & Observations

Time (PST) Temp. Windchill Dew Point Humidity Pressure Visibility Wind Dir Wind Speed Gust Speed Precip Events Conditions
12:00 AM 32.0 °F 26.4 °F 30.2 °F 93% 30.22 in 30.0 mi WSW 5.8 mph - N/A   Partly Cloudy
1:00 AM 33.8 °F 30.8 °F 32.0 °F 93% 30.23 in 30.0 mi West 3.5 mph - N/A   Clear
2:00 AM 35.6 °F 28.6 °F 32.0 °F 87% 30.24 in 30.0 mi WNW 9.2 mph - N/A   Scattered Clouds
3:00 AM 33.8 °F 25.8 °F 30.2 °F 87% 30.25 in 30.0 mi WNW 10.4 mph - N/A   Partly Cloudy
4:00 AM 34 °F - 30 °F 81% 30.27 in 28 mi WNW 6.9 mph - -   Partly Cloudy
4:00 AM 33.8 °F 27.7 °F 30.2 °F 87% 30.27 in 30.0 mi WNW 6.9 mph - N/A   Scattered Clouds
5:00 AM 30.2 °F 23.4 °F 26.6 °F 86% 30.27 in 30.0 mi WSW 6.9 mph - N/A   Partly Cloudy
6:00 AM 30.2 °F 23.4 °F 28.4 °F 93% 30.27 in 20.0 mi West 6.9 mph - N/A   Partly Cloudy
7:00 AM 32.0 °F 26.4 °F 30.2 °F 93% 30.29 in 20.0 mi WSW 5.8 mph - N/A   Partly Cloudy
8:00 AM 32.0 °F - 28.4 °F 87% 30.30 in 20.0 mi WSW 2.3 mph - N/A   Mostly Cloudy
9:00 AM 33.8 °F 27.7 °F 32.0 °F 93% 30.31 in 30.0 mi West 6.9 mph - N/A   Scattered Clouds
10:00 AM 38 °F - 33 °F 77% 30.31 in 28 mi West 4.6 mph - -   Scattered Clouds
10:00 AM 39.2 °F 35.9 °F 33.8 °F 81% 30.31 in 30.0 mi West 4.6 mph - N/A   Partly Cloudy
11:00 AM 42.8 °F 41.1 °F 35.6 °F 76% 30.31 in 30.0 mi WSW 3.5 mph - N/A   Scattered Clouds
12:00 PM 42.8 °F - 35.6 °F 76% 30.30 in 30.0 mi Calm Calm - N/A   Mostly Cloudy
1:00 PM 46.4 °F 45.2 °F 33.8 °F 62% 30.29 in 30.0 mi East 3.5 mph - N/A   Mostly Cloudy
2:00 PM 44.6 °F 41.4 °F 35.6 °F 71% 30.29 in 30.0 mi East 5.8 mph - N/A   Mostly Cloudy
3:00 PM 44.6 °F 40.7 °F 35.6 °F 71% 30.29 in 30.0 mi East 6.9 mph - N/A   Mostly Cloudy
4:00 PM 44 °F - 36 °F 66% 30.29 in 28 mi East 6.9 mph - -   Mostly Cloudy
4:00 PM 44.6 °F 40.7 °F 35.6 °F 71% 30.29 in 30.0 mi East 6.9 mph - N/A   Mostly Cloudy
5:00 PM 44.6 °F 43.1 °F 35.6 °F 71% 30.29 in 30.0 mi East 3.5 mph - N/A   Mostly Cloudy
6:00 PM 42.8 °F - 35.6 °F 76% 30.29 in 30.0 mi ENE 2.3 mph - N/A   Mostly Cloudy
7:00 PM 41.0 °F - 37.4 °F 87% 30.29 in 30.0 mi South 2.3 mph - N/A   Mostly Cloudy
8:00 PM 39.2 °F - 35.6 °F 87% 30.29 in 30.0 mi Calm Calm - N/A   Mostly Cloudy
9:00 PM 37.4 °F - 35.6 °F 93% 30.29 in 30.0 mi WSW 2.3 mph - N/A   Overcast
10:00 PM 37 °F - 35 °F 87% 30.29 in 28 mi WNW 2.3 mph - -   Scattered Clouds
10:00 PM 37.4 °F - 33.8 °F 87% 30.29 in 30.0 mi West 2.3 mph - N/A   Mostly Cloudy
10:26 PM 35.6 °F 32.8 °F - N/A% - 30.0 mi West 3.5 mph - N/A   Mostly Cloudy
11:00 PM 33.8 °F 28.6 °F 32.0 °F 93% 30.27 in 30.0 mi SW 5.8 mph - N/A   Scattered Clouds